| time (UTC) | temp F | wind direction | speed knots | gust knots | rain 1hr in | rain 24hr in | rain mn in | humidity % | barometer mb |
| 20260503184116 | 57 | 4 | 2.6 | 6.1 | 0.00 | 0.27 | 0.19 | 79 | 1014.7 |
| 20260503183036 | 57 | 13 | 2.6 | 3.5 | 0.00 | 0.28 | 0.19 | 79 | 1014.9 |
| 20260503182100 | 57 | 6 | 2.6 | 5.2 | 0.00 | 0.28 | 0.19 | 79 | 1015.0 |
| 20260503181020 | 58 | 4 | 1.7 | 3.5 | 0.00 | 0.29 | 0.19 | 78 | 1014.9 |
| 20260503180125 | 58 | 8 | 1.7 | 5.2 | 0.00 | 0.29 | 0.19 | 77 | 1014.9 |
| 20260503175108 | 59 | 356 | 2.6 | 5.2 | 0.00 | 0.32 | 0.19 | 77 | 1014.9 |
| 20260503174027 | 59 | 0 | 2.6 | 7.0 | 0.00 | 0.39 | 0.19 | 76 | 1014.8 |
| 20260503173112 | 59 | 25 | 1.7 | 3.5 | 0.00 | 0.50 | 0.19 | 76 | 1014.7 |
| 20260503172116 | 59 | 5 | 0.9 | 5.2 | 0.00 | 0.51 | 0.19 | 75 | 1014.7 |
| 20260503171036 | 59 | 23 | 1.7 | 6.1 | 0.00 | 0.51 | 0.19 | 75 | 1014.4 |
| 20260503170120 | 59 | 353 | 3.5 | 7.8 | 0.00 | 0.51 | 0.19 | 73 | 1014.5 |
| 20260503160116 | 60 | 17 | 3.5 | 7.0 | 0.00 | 0.63 | 0.19 | 74 | 1014.3 |
| 20260503131037 | 61 | 357 | 1.7 | 5.2 | 0.00 | 1.08 | 0.19 | 73 | 1014.6 |
| 20260503120116 | 59 | 15 | 2.6 | 5.2 | 0.00 | 1.10 | 0.19 | 80 | 1014.7 |
| 20260503081052 | 54 | 70 | 0.0 | 0.9 | 0.01 | 1.15 | 0.19 | 95 | 1014.7 |
| 20260503080116 | 54 | 64 | 0.0 | 0.9 | 0.01 | 1.15 | 0.19 | 96 | 1014.7 |
| 20260503072044 | 53 | 49 | 0.0 | 0.9 | 0.00 | 1.14 | 0.18 | 96 | 1014.5 |
| 20260503071108 | 53 | 0.0 | 0.9 | 0.00 | 1.14 | 0.18 | 96 | 1014.5 | |
| 20260503060104 | 54 | 43 | 0.9 | 0.9 | 0.00 | 1.14 | 0.18 | 96 | 1014.1 |
| 20260503055107 | 54 | 0.0 | 0.9 | 0.00 | 1.14 | 0.18 | 96 | 1014.0 | |
| 20260503054028 | 54 | 68 | 0.0 | 0.9 | 0.00 | 1.14 | 0.18 | 96 | 1014.0 |
| 20260503053112 | 54 | 80 | 0.0 | 0.9 | 0.00 | 1.14 | 0.18 | 96 | 1013.9 |
| 20260503052115 | 54 | 79 | 0.9 | 1.7 | 0.00 | 1.14 | 0.18 | 96 | 1013.9 |
| 20260503051036 | 54 | 77 | 0.9 | 1.7 | 0.00 | 1.14 | 0.18 | 96 | 1013.9 |
| 20260503050100 | 54 | 78 | 0.9 | 0.9 | 0.00 | 1.14 | 0.18 | 96 | 1013.8 |
| 20260503045040 | 54 | 79 | 0.9 | 1.7 | 0.00 | 1.14 | 0.18 | 96 | 1013.8 |
| 20260503044044 | 54 | 83 | 0.9 | 1.7 | 0.00 | 1.14 | 0.18 | 96 | 1013.8 |
| 20260503043107 | 54 | 68 | 0.0 | 0.9 | 0.00 | 1.14 | 0.18 | 96 | 1013.9 |
| 20260503042027 | 54 | 73 | 0.0 | 1.7 | 0.00 | 1.14 | 0.18 | 96 | 1013.9 |
| 20260503041052 | 54 | 0.0 | 0.0 | 0.00 | 1.14 | 0.18 | 96 | 1013.9 | |
| 20260503040116 | 54 | 0.0 | 0.0 | 0.00 | 1.14 | 0.18 | 96 | 1013.9 | |
| 20260503035036 | 54 | 68 | 0.0 | 0.9 | 0.00 | 1.14 | 0.18 | 96 | 1014.1 |
| 20260503034121 | 54 | 75 | 0.9 | 1.7 | 0.00 | 1.14 | 0.18 | 96 | 1014.2 |
| 20260503033029 | 54 | 73 | 0.9 | 1.7 | 0.00 | 1.14 | 0.18 | 96 | 1014.3 |
| 20260503032105 | 54 | 71 | 0.9 | 0.9 | 0.00 | 1.14 | 0.18 | 96 | 1014.2 |
| 20260503031108 | 54 | 71 | 0.0 | 0.9 | 0.00 | 1.14 | 0.18 | 96 | 1014.2 |
| 20260503030029 | 54 | 0.0 | 0.0 | 0.02 | 1.14 | 0.18 | 96 | 1014.2 | |
| 20260503025113 | 55 | 0.0 | 0.0 | 0.03 | 1.14 | 0.18 | 96 | 1014.2 | |
| 20260503024116 | 54 | 0.0 | 0.9 | 0.03 | 1.14 | 0.18 | 96 | 1014.2 | |
| 20260503023037 | 54 | 0.0 | 0.0 | 0.03 | 1.14 | 0.18 | 96 | 1014.4 | |
| 20260503022100 | 54 | 42 | 0.0 | 0.9 | 0.03 | 1.14 | 0.18 | 96 | 1014.4 |
| 20260503021020 | 55 | 11 | 0.0 | 1.7 | 0.03 | 1.14 | 0.18 | 96 | 1014.4 |
| 20260503020044 | 55 | 39 | 0.9 | 0.9 | 0.02 | 1.12 | 0.16 | 96 | 1014.4 |
| 20260503015109 | 55 | 27 | 0.9 | 1.7 | 0.01 | 1.11 | 0.15 | 96 | 1014.5 |
| 20260503014028 | 55 | 70 | 0.9 | 1.7 | 0.01 | 1.11 | 0.15 | 96 | 1014.7 |
| 20260503013052 | 55 | 77 | 0.9 | 1.7 | 0.01 | 1.11 | 0.15 | 95 | 1014.8 |
| 20260503012116 | 55 | 72 | 0.0 | 1.7 | 0.01 | 1.11 | 0.15 | 95 | 1014.8 |
| 20260503011056 | 55 | 77 | 0.9 | 1.7 | 0.01 | 1.11 | 0.15 | 95 | 1015.0 |
| 20260503010100 | 55 | 78 | 0.9 | 1.7 | 0.00 | 1.10 | 0.14 | 95 | 1015.1 |
| 20260503005021 | 55 | 73 | 0.9 | 1.7 | 0.00 | 1.10 | 0.14 | 95 | 1015.0 |
| 20260503004044 | 55 | 71 | 0.9 | 1.7 | 0.02 | 1.10 | 0.14 | 95 | 1015.1 |
| 20260503003128 | 55 | 75 | 0.9 | 1.7 | 0.04 | 1.10 | 0.14 | 95 | 1015.1 |
| 20260503002028 | 55 | 55 | 0.0 | 0.9 | 0.10 | 1.10 | 0.14 | 95 | 1015.3 |
| 20260503001053 | 55 | 0.0 | 0.0 | 0.12 | 1.10 | 0.14 | 95 | 1015.4 | |
| 20260503000116 | 55 | 0.0 | 0.0 | 0.13 | 1.10 | 0.14 | 95 | 1015.4 | |
| 20260502235036 | 55 | 51 | 0.0 | 0.9 | 0.14 | 1.10 | 0.14 | 95 | 1015.5 |
| 20260502234100 | 55 | 47 | 0.0 | 0.9 | 0.12 | 1.08 | 0.12 | 95 | 1015.5 |
| 20260502233020 | 55 | 43 | 0.0 | 0.9 | 0.10 | 1.06 | 0.10 | 95 | 1015.6 |
| 20260502232044 | 55 | 47 | 0.0 | 0.9 | 0.04 | 1.00 | 0.04 | 95 | 1015.7 |
| 20260502231128 | 56 | 45 | 0.0 | 0.9 | 0.02 | 0.98 | 0.02 | 95 | 1015.7 |
| 20260502230028 | 56 | 97 | 0.9 | 1.7 | 0.01 | 0.97 | 0.01 | 95 | 1015.7 |
| 20260502225112 | 56 | 116 | 1.7 | 2.6 | 0.00 | 0.96 | 0.00 | 95 | 1015.8 |
| 20260502224136 | 56 | 127 | 1.7 | 3.5 | 0.00 | 0.96 | 0.00 | 94 | 1015.6 |
| 20260502223036 | 56 | 116 | 1.7 | 2.6 | 0.00 | 0.96 | 0.00 | 94 | 1015.7 |
| 20260502222100 | 56 | 113 | 1.7 | 2.6 | 0.00 | 0.96 | 0.00 | 94 | 1015.8 |
| 20260502221019 | 56 | 77 | 0.9 | 1.7 | 0.00 | 0.96 | 0.00 | 94 | 1015.8 |
| 20260502220104 | 56 | 84 | 0.9 | 2.6 | 0.00 | 0.96 | 0.00 | 94 | 1015.7 |
| 20260502215108 | 56 | 77 | 0.9 | 1.7 | 0.00 | 0.96 | 0.96 | 94 | 1015.7 |
| 20260502214028 | 56 | 72 | 1.7 | 2.6 | 0.00 | 0.96 | 0.96 | 94 | 1015.8 |
| 20260502213052 | 56 | 75 | 0.9 | 1.7 | 0.00 | 0.96 | 0.96 | 94 | 1015.8 |
| 20260502212117 | 56 | 76 | 0.9 | 1.7 | 0.00 | 0.96 | 0.96 | 94 | 1015.9 |
| 20260502211057 | 56 | 76 | 0.9 | 2.6 | 0.00 | 0.96 | 0.96 | 94 | 1015.9 |
| 20260502210120 | 56 | 80 | 0.9 | 1.7 | 0.00 | 0.96 | 0.96 | 94 | 1015.8 |
| 20260502205040 | 56 | 81 | 0.9 | 1.7 | 0.00 | 0.96 | 0.96 | 94 | 1015.9 |
| 20260502204044 | 56 | 84 | 0.9 | 1.7 | 0.00 | 0.96 | 0.96 | 94 | 1015.9 |
| 20260502203108 | 56 | 77 | 0.9 | 1.7 | 0.00 | 0.96 | 0.96 | 94 | 1015.7 |
| 20260502202028 | 56 | 71 | 0.9 | 1.7 | 0.00 | 0.96 | 0.96 | 94 | 1015.6 |
| 20260502201052 | 56 | 86 | 0.9 | 1.7 | 0.02 | 0.96 | 0.96 | 94 | 1015.5 |
| 20260502200115 | 56 | 83 | 0.9 | 1.7 | 0.03 | 0.96 | 0.96 | 94 | 1015.5 |
| 20260502195037 | 56 | 99 | 0.9 | 1.7 | 0.06 | 0.96 | 0.96 | 94 | 1015.4 |
| 20260502194119 | 56 | 15 | 1.7 | 2.6 | 0.08 | 0.96 | 0.96 | 94 | 1015.5 |
| 20260502193020 | 56 | 10 | 0.9 | 2.6 | 0.09 | 0.96 | 0.96 | 94 | 1015.4 |
| 20260502192044 | 56 | 23 | 0.9 | 2.6 | 0.09 | 0.96 | 0.96 | 94 | 1015.5 |
| 20260502191109 | 56 | 25 | 0.9 | 3.5 | 0.08 | 0.94 | 0.94 | 94 | 1015.3 |
| 20260502190028 | 56 | 24 | 0.9 | 2.6 | 0.07 | 0.93 | 0.93 | 94 | 1015.3 |
| 20260502185052 | 56 | 29 | 1.7 | 6.1 | 0.07 | 0.90 | 0.90 | 93 | 1015.2 |